Regional Weather Roundup
Issued by NWS Midland/Odessa, TX

Skip options and go directly to product.
Home | Oldest Version | Next Version | Current Version | All | Text Only | Save Text | Print | Product List | Glossary On

Skip product version selection by date and time.   
932
ASUS44 KMAF 212001
RWRMAF
MIDLAND AREA WEATHER ROUNDUP
NATIONAL WEATHER SERVICE MIDLAND TX
300 PM CDT THU MAY 21 2015

...IN SOUTHWEST TEXAS AND SOUTHEAST NEW MEXICO...

CITY           SKY/WX    TMP DP  RH WIND       PRES   REMARKS
ALPINE         CLOUDY    55  54  97 NE10      30.23F
ANDREWS        CLOUDY    54  48  82 E12       30.22F
ARTESIA        CLOUDY    54  52  94 SE9       30.21F
BIG SPRING     CLOUDY    59  50  73 NE13G18   30.24S
CARLSBAD       CLOUDY    54  51  90 E10       30.19F
DRYDEN           N/A     65  57  75 NE14      30.12F
FORT STOCKTON  CLOUDY    55  54  96 NE10      30.18F FOG
GUAD PASS      LGT RAIN  50  32  50 NE32      30.16F VSB 1/4
HOBBS          CLOUDY    48  48 100 NE12      30.23F
MARFA          MOSUNNY  N/A N/A N/A NE21      30.16F
MIDLAND AIRPK  CLOUDY    56  49  78 E13       30.22S
MIDLAND INTL   CLOUDY    55  49  80 E13       30.20F
ODESSA         CLOUDY    55  48  77 E14       30.20F
PECOS          DRIZZLE   55  52  88 E9        30.20S
PRESIDIO       FAIR      84  60  43 N20       29.99F
SEMINOLE       CLOUDY    52  49  90 E10       30.23F
SNYDER         CLOUDY    58  48  70 E14G20    30.24S
WINK           CLOUDY    57  48  72 E12       30.18F
$$
...OTHER STATIONS IN TEXAS...

CITY           SKY/WX    TMP DP  RH WIND       PRES   REMARKS
ABILENE        CLOUDY    62  51  67 NE12      30.21F
AMARILLO       CLOUDY    55  44  66 E10       30.26S
AUSTIN         CLOUDY    69  61  75 N14       30.10F
BROWNSVILLE    LGT RAIN  77  75  93 S14       29.97F FOG
CORPUS CHRISTI LGT RAIN  83  76  79 E12       29.97R
DALLAS FTW     CLOUDY    62  55  77 N10       30.18F
DEL RIO        CLOUDY    74  62  66 N6        30.06F
EL PASO        MOSUNNY   76  52  43 E13G22    30.01F
HOUSTON INT    CLOUDY    75  70  84 NE14      30.07R
LUBBOCK        CLOUDY    54  47  77 E14       30.23F
SAN ANGELO     CLOUDY    61  54  77 NE10      30.18F
SAN ANTONIO    CLOUDY    75  63  66 N14       30.08F
WACO           CLOUDY    65  56  72 N12       30.15F
WICHITA FALLS  NOT AVBL
$$
...OTHER LOCATIONS IN NEW MEXICO...

CITY           SKY/WX    TMP DP  RH WIND       PRES   REMARKS
ALAMAGORDO     PTSUNNY   77  50  38 S21G26    30.03F
ALBUQUERQUE    CLOUDY    60  43  53 E28G38    30.11F
CANNON AFB     DRIZZLE   47  46  96 SE10      30.25S FOG
CLOVIS         CLOUDY    46  43  87 E10       30.26S
HOLLOMAN AFB   PTSUNNY   77  51  40 S22G28    30.02F
ROSWELL        LGT RAIN  53  50  89 E8        30.21F FOG
RUIDOSO        CLOUDY    46  46 100 SE12      30.25F FOG
SANTA FE       CLOUDY    56  41  57 SE18G24   30.19F
TRUTH OR CONSE PTSUNNY   74  49  41 SE13      30.00F
TUCUMCARI      CLOUDY    52  43  71 CALM      30.25R
$$

USA.gov is the U.S. government's official web portal to all federal, state and local government web resources and services.